THY2GF LTFM-LTAC

Flight info

Callsign THY2GF
Flight time N/A
Altitude 25000
Route VICEN T380 ASMAP L333 LATGA
Aircraft B738/M-SDE2E3FGHIRWXY/LB1

Departure

Time 2026-02-18 13:20
Airport İstanbul Airport (LTFM)

Arrival

Time N/A
Airport Esenboğa International Airport (LTAC)
Time Latitude Longitude Altitude Speed Heading
2026-02-18 13:05 41.26637 28.75042 335 ft 0 kts 277°
2026-02-18 13:13 41.26636 28.75060 334 ft 2 kts 277°
2026-02-18 13:13 41.26634 28.75080 334 ft 2 kts 277°
2026-02-18 13:14 41.26632 28.75094 334 ft 0 kts 277°
2026-02-18 13:14 41.26631 28.75109 334 ft 2 kts 261°
2026-02-18 13:14 41.26637 28.75128 334 ft 2 kts 239°
2026-02-18 13:14 41.26646 28.75143 334 ft 2 kts 217°
2026-02-18 13:15 41.26659 28.75152 334 ft 2 kts 195°
2026-02-18 13:15 41.26669 28.75154 334 ft 0 kts 181°
2026-02-18 13:15 41.26675 28.75154 334 ft 0 kts 179°
2026-02-18 13:17 41.26649 28.75156 334 ft 8 kts 169°
2026-02-18 13:17 41.26613 28.75224 334 ft 12 kts 89°
2026-02-18 13:17 41.26613 28.75358 334 ft 15 kts 98°
2026-02-18 13:18 41.26571 28.75387 334 ft 7 kts 181°
2026-02-18 13:18 41.26494 28.75388 334 ft 14 kts 179°
2026-02-18 13:18 41.26408 28.75446 334 ft 17 kts 88°
2026-02-18 13:18 41.26414 28.75622 334 ft 18 kts 85°
2026-02-18 13:19 41.26471 28.75667 334 ft 5 kts 358°
2026-02-18 13:19 41.26588 28.75666 334 ft 48 kts 358°
2026-02-18 13:19 41.27202 28.75654 334 ft 125 kts 359°
2026-02-18 13:19 41.28229 28.75665 671 ft 160 kts 356°
2026-02-18 13:20 41.29346 28.75678 1482 ft 167 kts 359°
2026-02-18 13:20 41.30468 28.76296 2127 ft 191 kts 29°
2026-02-18 13:20 41.31539 28.77362 2926 ft 199 kts 31°
2026-02-18 13:20 41.32715 28.78454 3527 ft 217 kts 23°
2026-02-18 13:21 41.35558 28.80520 5027 ft 246 kts 22°
2026-02-18 13:21 41.36989 28.81799 5853 ft 261 kts 39°
2026-02-18 13:21 41.38032 28.83831 6739 ft 276 kts 65°
2026-02-18 13:22 41.38383 28.86388 7549 ft 289 kts 88°
2026-02-18 13:22 41.38120 28.89052 8441 ft 296 kts 108°
2026-02-18 13:22 41.37216 28.91474 9398 ft 296 kts 128°
2026-02-18 13:22 41.35777 28.93368 10318 ft 296 kts 148°
2026-02-18 13:23 41.33860 28.94538 10657 ft 316 kts 171°
2026-02-18 13:23 41.31610 28.94730 11150 ft 331 kts 183°
2026-02-18 13:23 41.29274 28.94742 11688 ft 346 kts 181°
2026-02-18 13:23 41.26865 28.94821 12542 ft 350 kts 181°
2026-02-18 13:24 41.24390 28.94835 13343 ft 354 kts 185°
2026-02-18 13:24 41.21955 28.94609 14283 ft 353 kts 188°
2026-02-18 13:24 41.19509 28.94342 14903 ft 361 kts 188°
2026-02-18 13:24 41.16981 28.94102 15604 ft 367 kts 187°
2026-02-18 13:25 41.11801 28.93616 16854 ft 380 kts 187°
2026-02-18 13:25 41.09152 28.93368 17496 ft 385 kts 187°
2026-02-18 13:25 41.06481 28.93119 18090 ft 390 kts 187°
2026-02-18 13:26 41.03760 28.93121 18663 ft 400 kts 175°
2026-02-18 13:26 41.01091 28.94243 19330 ft 409 kts 153°
2026-02-18 13:26 40.98842 28.96567 19982 ft 415 kts 137°
2026-02-18 13:26 40.96840 28.99313 20546 ft 420 kts 136°
2026-02-18 13:27 40.94759 29.02086 21101 ft 423 kts 137°
2026-02-18 13:27 40.92675 29.04786 21761 ft 423 kts 137°
2026-02-18 13:27 40.90573 29.07515 22284 ft 427 kts 137°
2026-02-18 13:27 40.88422 29.10313 22840 ft 429 kts 137°
2026-02-18 13:28 40.86359 29.13198 23339 ft 434 kts 130°
2026-02-18 13:28 40.84667 29.16515 23787 ft 440 kts 120°
2026-02-18 13:28 40.83435 29.20304 23483 ft 459 kts 107°
2026-02-18 13:28 40.82677 29.24317 24333 ft 451 kts 104°
2026-02-18 13:29 40.81124 29.32290 24829 ft 450 kts 105°
2026-02-18 13:29 40.80318 29.36266 24831 ft 452 kts 105°
2026-02-18 13:29 40.79516 29.40266 24832 ft 452 kts 105°
2026-02-18 13:30 40.78718 29.44259 24832 ft 451 kts 105°
2026-02-18 13:30 40.77910 29.48290 24832 ft 451 kts 105°
2026-02-18 13:30 40.77118 29.52231 24832 ft 451 kts 105°
2026-02-18 13:30 40.76316 29.56221 24832 ft 451 kts 105°
2026-02-18 13:31 40.75511 29.60222 24832 ft 451 kts 105°
2026-02-18 13:31 40.74705 29.64224 24832 ft 451 kts 104°
2026-02-18 13:31 40.74004 29.68224 24808 ft 451 kts 101°
2026-02-18 13:31 40.73578 29.72334 24807 ft 451 kts 94°
2026-02-18 13:32 40.73459 29.76428 24805 ft 451 kts 91°
2026-02-18 13:32 40.73386 29.80553 24805 ft 451 kts 92°
2026-02-18 13:32 40.73283 29.84720 24805 ft 450 kts 93°
2026-02-18 13:32 40.73180 29.88793 24805 ft 449 kts 92°
2026-02-18 13:33 40.72996 29.97046 24805 ft 450 kts 92°
2026-02-18 13:33 40.72881 30.01138 24803 ft 449 kts 95°
2026-02-18 13:33 40.72499 30.05212 24807 ft 449 kts 100°
2026-02-18 13:34 40.71876 30.09236 24803 ft 448 kts 107°
2026-02-18 13:34 40.70936 30.13166 24806 ft 447 kts 111°
2026-02-18 13:34 40.69922 30.17001 24805 ft 447 kts 110°
2026-02-18 13:34 40.68918 30.20885 24805 ft 447 kts 110°
2026-02-18 13:35 40.67929 30.24736 24805 ft 447 kts 110°
2026-02-18 13:35 40.67068 30.28680 24803 ft 449 kts 104°
2026-02-18 13:35 40.66577 30.32728 24806 ft 451 kts 100°
2026-02-18 13:35 40.66215 30.36799 24804 ft 448 kts 100°
2026-02-18 13:36 40.65835 30.40892 24805 ft 446 kts 101°
2026-02-18 13:36 40.65455 30.44935 24805 ft 447 kts 100°
2026-02-18 13:36 40.65090 30.48949 24805 ft 447 kts 100°
2026-02-18 13:36 40.64725 30.53063 24805 ft 448 kts 100°
2026-02-18 13:37 40.64017 30.61173 24805 ft 448 kts 100°
2026-02-18 13:37 40.63662 30.65261 24805 ft 448 kts 100°
2026-02-18 13:37 40.63280 30.69311 24804 ft 446 kts 103°
2026-02-18 13:38 40.62649 30.73242 24806 ft 443 kts 109°
2026-02-18 13:38 40.61820 30.77150 24806 ft 442 kts 110°
2026-02-18 13:38 40.60995 30.81027 24804 ft 439 kts 109°
2026-02-18 13:38 40.60190 30.84922 24804 ft 437 kts 108°
2026-02-18 13:39 40.59402 30.88720 24805 ft 437 kts 108°
2026-02-18 13:39 40.58582 30.92618 24805 ft 437 kts 108°
2026-02-18 13:39 40.57772 30.96448 24805 ft 438 kts 108°
2026-02-18 13:39 40.56959 31.00282 24805 ft 438 kts 108°
2026-02-18 13:40 40.56140 31.04141 24805 ft 438 kts 108°
2026-02-18 13:40 40.55321 31.07985 24805 ft 438 kts 109°
2026-02-18 13:40 40.54503 31.11813 24790 ft 438 kts 109°
2026-02-18 13:40 40.53667 31.15714 24726 ft 439 kts 109°
2026-02-18 13:41 40.52026 31.23353 24670 ft 437 kts 109°
2026-02-18 13:41 40.51191 31.27224 24671 ft 437 kts 109°
2026-02-18 13:41 40.50366 31.31041 24669 ft 435 kts 110°
2026-02-18 13:42 40.49539 31.34854 24670 ft 436 kts 110°
2026-02-18 13:42 40.48703 31.38702 24670 ft 436 kts 110°
2026-02-18 13:42 40.47879 31.42489 24670 ft 436 kts 110°
2026-02-18 13:42 40.47047 31.46312 24673 ft 436 kts 110°
2026-02-18 13:43 40.46215 31.50126 24731 ft 435 kts 110°
2026-02-18 13:43 40.45383 31.53938 24798 ft 435 kts 110°
2026-02-18 13:43 40.44554 31.57733 24867 ft 435 kts 110°
2026-02-18 13:43 40.43720 31.61545 24931 ft 436 kts 110°
2026-02-18 13:44 40.42870 31.65421 24938 ft 437 kts 110°
2026-02-18 13:44 40.42026 31.69262 24939 ft 436 kts 110°
2026-02-18 13:44 40.41186 31.73081 24940 ft 435 kts 110°
2026-02-18 13:44 40.40345 31.76895 24939 ft 436 kts 110°
2026-02-18 13:45 40.38651 31.84554 24940 ft 440 kts 110°
2026-02-18 13:45 40.37794 31.88425 24940 ft 439 kts 110°
2026-02-18 13:45 40.36932 31.92310 24940 ft 439 kts 110°
2026-02-18 13:46 40.36078 31.96149 24940 ft 439 kts 110°
2026-02-18 13:46 40.35233 31.99929 24939 ft 438 kts 110°
2026-02-18 13:46 40.34372 32.03753 24940 ft 437 kts 110°
2026-02-18 13:46 40.33515 32.07560 24940 ft 437 kts 110°
2026-02-18 13:47 40.32653 32.11385 24940 ft 437 kts 110°
2026-02-18 13:47 40.31857 32.15237 24938 ft 439 kts 105°
2026-02-18 13:47 40.31421 32.19241 24940 ft 443 kts 96°
2026-02-18 13:47 40.31498 32.23256 24940 ft 447 kts 85°
2026-02-18 13:48 40.32158 32.27273 24942 ft 451 kts 74°
2026-02-18 13:48 40.33262 32.31107 24943 ft 454 kts 68°
2026-02-18 13:48 40.34486 32.34884 24933 ft 453 kts 72°
2026-02-18 13:48 40.35164 32.38884 24950 ft 449 kts 85°
2026-02-18 13:49 40.35262 32.47031 24932 ft 443 kts 103°
2026-02-18 13:49 40.34331 32.50850 24951 ft 435 kts 118°
2026-02-18 13:49 40.32990 32.54364 24935 ft 434 kts 122°
2026-02-18 13:50 40.31387 32.57729 24942 ft 430 kts 129°
2026-02-18 13:50 40.29655 32.60868 24940 ft 429 kts 130°
2026-02-18 13:50 40.27905 32.64044 24940 ft 429 kts 129°
2026-02-18 13:50 40.26178 32.67221 24939 ft 429 kts 130°
2026-02-18 13:51 40.24518 32.70466 24933 ft 432 kts 123°
2026-02-18 13:51 40.23404 32.74049 24711 ft 428 kts 108°
2026-02-18 13:51 40.22971 32.77893 24410 ft 418 kts 97°
2026-02-18 13:51 40.22988 32.81691 23291 ft 431 kts 87°
2026-02-18 13:52 40.23792 32.85488 21797 ft 451 kts 64°
2026-02-18 13:52 40.25598 32.88773 21226 ft 441 kts 49°
2026-02-18 13:52 40.27668 32.91718 20345 ft 439 kts 43°
2026-02-18 13:52 40.30025 32.94238 19618 ft 432 kts 35°
2026-02-18 13:53 40.34813 32.98738 18089 ft 422 kts 35°
2026-02-18 13:53 40.39511 33.03260 16367 ft 415 kts 35°
2026-02-18 13:54 40.41799 33.05454 15392 ft 400 kts 35°
2026-02-18 13:54 40.43944 33.07513 14832 ft 379 kts 35°
2026-02-18 13:54 40.46051 33.09536 14056 ft 365 kts 34°
2026-02-18 13:55 40.49923 33.13258 13310 ft 337 kts 35°
2026-02-18 13:55 40.51567 33.15330 12807 ft 326 kts 54°
2026-02-18 13:55 40.52506 33.17986 12307 ft 317 kts 79°
2026-02-18 13:55 40.52571 33.20814 11740 ft 310 kts 103°
2026-02-18 13:56 40.51794 33.23407 10938 ft 304 kts 129°
2026-02-18 13:56 40.50302 33.25219 10490 ft 289 kts 155°
2026-02-18 13:56 40.48463 33.25998 9895 ft 277 kts 180°
2026-02-18 13:56 40.46547 33.25931 9608 ft 277 kts 186°
2026-02-18 13:57 40.42666 33.25674 8931 ft 276 kts 186°
2026-02-18 13:57 40.40755 33.25547 8625 ft 274 kts 186°
2026-02-18 13:57 40.38917 33.25227 8441 ft 268 kts 200°
2026-02-18 13:58 40.37324 33.23984 8289 ft 266 kts 224°
2026-02-18 13:58 40.36888 33.23414 8258 ft 267 kts 226°
2026-02-18 13:58 40.34504 33.20564 8086 ft 267 kts 221°
2026-02-18 13:58 40.33060 33.19036 7940 ft 270 kts 218°
2026-02-18 13:59 40.31541 33.17584 7554 ft 269 kts 217°
2026-02-18 13:59 40.30067 33.16159 7169 ft 256 kts 217°
2026-02-18 13:59 40.28690 33.14841 6828 ft 238 kts 217°
2026-02-18 13:59 40.27416 33.13618 6444 ft 217 kts 217°
2026-02-18 14:00 40.26244 33.12495 6114 ft 201 kts 217°
2026-02-18 14:00 40.25160 33.11456 5846 ft 189 kts 217°
2026-02-18 14:00 40.24146 33.10487 5614 ft 169 kts 218°
2026-02-18 14:00 40.23238 33.09617 5365 ft 156 kts 219°
2026-02-18 14:01 40.21475 33.07930 4945 ft 157 kts 219°
2026-02-18 14:01 40.20593 33.07087 4729 ft 156 kts 219°
2026-02-18 14:01 40.19748 33.06279 4535 ft 146 kts 219°
2026-02-18 14:02 40.18938 33.05507 4326 ft 144 kts 219°
2026-02-18 14:02 40.18124 33.04726 4129 ft 145 kts 218°
2026-02-18 14:02 40.17297 33.03950 3959 ft 145 kts 218°
2026-02-18 14:02 40.16492 33.03182 3780 ft 145 kts 218°
2026-02-18 14:03 40.15668 33.02408 3587 ft 146 kts 219°
2026-02-18 14:03 40.14860 33.01601 3391 ft 145 kts 218°
2026-02-18 14:03 40.14052 33.00838 3168 ft 141 kts 218°
2026-02-18 14:03 40.13333 33.00148 3136 ft 125 kts 218°
2026-02-18 14:04 40.12594 32.99425 3355 ft 135 kts 218°
2026-02-18 14:04 40.12069 32.98912 3484 ft 149 kts 219°
2026-02-18 14:04 40.10923 32.97793 3991 ft 164 kts 219°
2026-02-18 14:04 40.09965 32.96821 4268 ft 187 kts 219°
2026-02-18 14:05 40.07845 32.94885 5196 ft 218 kts 217°
2026-02-18 14:05 40.06364 32.93564 6209 ft 220 kts 217°
2026-02-18 14:06 40.04959 32.92312 6685 ft 243 kts 217°
2026-02-18 14:06 40.02714 32.89621 6722 ft 248 kts 245°
2026-02-18 14:06 40.02534 32.89068 6722 ft 248 kts 252°
2026-02-18 14:07 40.03392 32.84429 6721 ft 258 kts 313°
2026-02-18 14:07 40.04744 32.83328 6721 ft 265 kts 338°
2026-02-18 14:07 40.06626 32.83089 6721 ft 275 kts
2026-02-18 14:08 40.08108 32.83756 6725 ft 280 kts 26°
2026-02-18 14:08 40.09102 32.84507 6723 ft 281 kts 27°
2026-02-18 14:08 40.12458 32.86900 6719 ft 279 kts 26°
2026-02-18 14:08 40.14985 32.88790 6719 ft 280 kts 32°
2026-02-18 14:09 40.18271 32.91927 6721 ft 280 kts 34°
2026-02-18 14:09 40.19847 32.93432 6721 ft 280 kts 34°
2026-02-18 14:09 40.21433 32.94948 6721 ft 280 kts 34°
2026-02-18 14:10 40.23012 32.96458 6721 ft 280 kts 34°
2026-02-18 14:10 40.24588 32.97966 6721 ft 280 kts 34°
2026-02-18 14:10 40.26146 32.99454 6721 ft 280 kts 34°
2026-02-18 14:10 40.27726 33.00920 6720 ft 277 kts 34°
2026-02-18 14:11 40.29240 33.02487 6712 ft 277 kts 47°
2026-02-18 14:11 40.30183 33.04591 6590 ft 265 kts 75°
2026-02-18 14:11 40.30269 33.06905 6449 ft 250 kts 105°
2026-02-18 14:11 40.29566 33.08907 6314 ft 236 kts 126°
2026-02-18 14:12 40.28669 33.10654 6184 ft 220 kts 130°
2026-02-18 14:12 40.27575 33.11830 6008 ft 196 kts 162°
2026-02-18 14:12 40.26283 33.11917 5854 ft 185 kts 200°
2026-02-18 14:12 40.25140 33.11162 5762 ft 186 kts 211°
2026-02-18 14:13 40.23004 33.09378 5324 ft 169 kts 218°
2026-02-18 14:13 40.22098 33.08524 5077 ft 154 kts 219°
2026-02-18 14:13 40.21227 33.07691 4883 ft 156 kts 219°
2026-02-18 14:14 40.20382 33.06885 4696 ft 146 kts 219°
2026-02-18 14:14 40.19577 33.06116 4477 ft 141 kts 219°
2026-02-18 14:14 40.18786 33.05359 4288 ft 140 kts 218°
2026-02-18 14:14 40.18003 33.04606 4104 ft 139 kts 219°
2026-02-18 14:15 40.17241 33.03839 3934 ft 137 kts 218°
2026-02-18 14:15 40.15700 33.02394 3553 ft 136 kts 215°
2026-02-18 14:15 40.14919 33.01664 3372 ft 135 kts 218°
2026-02-18 14:16 40.13517 33.00325 3134 ft 96 kts 217°
2026-02-18 14:16 40.13092 32.99914 3134 ft 68 kts 217°
2026-02-18 14:16 40.12741 32.99583 3135 ft 56 kts 218°